Weather History for KUTA - October, 2011

Change the Weather History Date:

Friday, October 28, 2011

  Actual Average (KMEM) Record (KMEM)
Temperature  
Mean Temperature 48 °F 60 °F  
Max Temperature 55 °F 70 °F 85 °F (1971)
Min Temperature 42 °F 50 °F 29 °F (1957)
Degree Days  
Heating Degree Days 16 6  
Month to date heating degree days 98  
Since 1 July heating degree days 109  
Cooling Degree Days 0 2  
Month to date cooling degree days 89  
Year to date cooling degree days 2240  
Moisture  
Dew Point 42 °F    
Average Humidity 78    
Maximum Humidity 93    
Minimum Humidity 47    
Precipitation  
Precipitation 0.00 in 0.14 in 1.66 in (1964)
Month to date precipitation 3.57  
Year to date precipitation 42.04  
Snow  
Snow 0.00 in 0.00 in T in (1910)
Month to date snowfall 0.0  
Since 1 July snowfall 0.0  
Since 1 September snowfall 0.0  
Snow Depth -    
Sea Level Pressure  
Sea Level Pressure 30.12 in    
Wind  
Wind Speed 13 mph (North)    
Max Wind Speed 21 mph    
Max Gust Speed 26 mph    
Visibility 9 miles    
Events Rain    
T = Trace of Precipitation, MM = Missing Value Source: NWS Daily Summary

Daily Weather History Graph

Daily Weather History Graph

Search for Another Location

Airport or City:

Trip Planner

Search our weather history database for the weather conditions in past years. The results will help you decide how hot, cold, wet, or windy it might be!

Date:

Astronomy

Oct. 28, 2011 Rise Set
Actual Time 7:18 AM CDT 6:11 PM CDT
Civil Twilight 6:52 AM CDT 6:37 PM CDT
Nautical Twilight 6:22 AM CDT 7:07 PM CDT
Astronomical Twilight 5:53 AM CDT 7:36 PM CDT
Moon 9:26 AM CDT 7:42 PM CDT
Length of Visible Light 11h 45m
Length of Day
10h 53m
Waxing Crescent, 5% of the Moon is Illuminated
Oct 28
Waxing Crescent
Nov 2
First Quarter
Nov 10
Full
Nov 18
Last Quarter
Nov 25
New

Hourly Weather History & Observations

Time (CDT) Temp. Windchill Dew Point Humidity Pressure Visibility Wind Dir Wind Speed Gust Speed Precip Events Conditions
12:15 AM 50.0 °F - 46.4 °F 87% 30.04 in 7.0 mi NNE 10.4 mph - N/A Rain Rain
12:35 AM 50.0 °F - 46.4 °F 87% 30.05 in 7.0 mi NNE 10.4 mph - N/A Rain Light Rain
1:15 AM 48.2 °F - 46.4 °F 93% 30.02 in 7.0 mi NNE 12.7 mph - N/A Rain Light Rain
1:35 AM 48.2 °F - 46.4 °F 93% 30.03 in 7.0 mi North 12.7 mph - N/A Rain Light Rain
1:55 AM 48.2 °F - 46.4 °F 93% 30.06 in 10.0 mi North 12.7 mph - N/A Rain Light Rain
2:15 AM 48.2 °F - 46.4 °F 93% 30.05 in 7.0 mi North 12.7 mph - N/A Rain Heavy Rain
2:35 AM 46.4 °F 40.1 °F 44.6 °F 93% 30.05 in 5.0 mi North 15.0 mph - N/A Rain Rain
2:55 AM 46.4 °F 39.5 °F 44.6 °F 93% 30.03 in 5.0 mi NNE 17.3 mph 23.0 mph N/A Rain Heavy Rain
3:15 AM 46.4 °F 40.1 °F 44.6 °F 93% 30.01 in 5.0 mi NNE 15.0 mph 24.2 mph N/A Rain Rain
3:35 AM 46.4 °F 40.4 °F 44.6 °F 93% 30.05 in 10.0 mi North 13.8 mph 18.4 mph N/A Rain Light Rain
3:55 AM 48.2 °F - 44.6 °F 87% 30.09 in 7.0 mi NW 17.3 mph - N/A Rain Rain
4:15 AM 46.4 °F 40.1 °F 44.6 °F 93% 30.12 in 5.0 mi NW 15.0 mph - N/A Rain Rain
4:35 AM 46.4 °F 40.7 °F 44.6 °F 93% 30.12 in 5.0 mi NNW 12.7 mph - N/A Rain Light Rain
4:55 AM 46.4 °F 39.8 °F 44.6 °F 93% 30.07 in 4.0 mi NNE 16.1 mph - N/A Rain Rain
5:15 AM 46.4 °F 40.1 °F 44.6 °F 93% 30.04 in 10.0 mi NNE 15.0 mph 23.0 mph N/A   Light Drizzle
5:35 AM 46.4 °F 39.8 °F 44.6 °F 93% 30.05 in 10.0 mi NNE 16.1 mph 20.7 mph N/A   Mostly Cloudy
5:55 AM 46.4 °F 40.7 °F 44.6 °F 93% 30.08 in 10.0 mi North 12.7 mph - N/A   Light Drizzle
6:15 AM 46.4 °F 40.7 °F 44.6 °F 93% 30.10 in 10.0 mi North 12.7 mph 17.3 mph N/A   Overcast
6:35 AM 46.4 °F 40.4 °F 44.6 °F 93% 30.10 in 10.0 mi North 13.8 mph 19.6 mph N/A   Overcast
6:55 AM 46.4 °F 39.8 °F 44.6 °F 93% 30.11 in 10.0 mi North 16.1 mph - N/A   Overcast
7:15 AM 46.4 °F 40.1 °F 44.6 °F 93% 30.10 in 10.0 mi North 15.0 mph - N/A   Overcast
7:35 AM 46.4 °F 39.8 °F 44.6 °F 93% 30.10 in 10.0 mi North 16.1 mph - N/A   Overcast
7:55 AM 46.4 °F 40.1 °F 44.6 °F 93% 30.12 in 10.0 mi North 15.0 mph 18.4 mph N/A   Overcast
8:15 AM 46.4 °F 39.5 °F 44.6 °F 93% 30.13 in 10.0 mi North 17.3 mph 21.9 mph N/A   Mostly Cloudy
9:15 AM 48.2 °F - 44.6 °F 87% 30.15 in 10.0 mi North 15.0 mph 19.6 mph N/A   Mostly Cloudy
9:35 AM 48.2 °F - 44.6 °F 87% 30.16 in 10.0 mi North 15.0 mph - N/A   Mostly Cloudy
9:55 AM 48.2 °F - 44.6 °F 87% 30.15 in 10.0 mi North 16.1 mph - N/A   Overcast
10:15 AM 50.0 °F - 44.6 °F 82% 30.15 in 10.0 mi NNE 15.0 mph 21.9 mph N/A   Overcast
10:35 AM 50.0 °F - 44.6 °F 82% 30.15 in 10.0 mi NNE 16.1 mph - N/A   Overcast
10:55 AM 50.0 °F - 42.8 °F 76% 30.15 in 10.0 mi North 16.1 mph - N/A   Overcast
11:15 AM 51.8 °F - 42.8 °F 71% 30.15 in 10.0 mi North 16.1 mph - N/A   Overcast
11:35 AM 51.8 °F - 42.8 °F 71% 30.15 in 10.0 mi NNE 18.4 mph 21.9 mph N/A   Overcast
11:55 AM 51.8 °F - 42.8 °F 71% 30.15 in 10.0 mi North 13.8 mph - N/A   Overcast
12:15 PM 51.8 °F - 42.8 °F 71% 30.14 in 10.0 mi NNE 17.3 mph 21.9 mph N/A   Overcast
12:35 PM 51.8 °F - 41.0 °F 67% 30.13 in 10.0 mi North 17.3 mph 23.0 mph N/A   Mostly Cloudy
12:55 PM 51.8 °F - 42.8 °F 71% 30.13 in 10.0 mi North 15.0 mph 20.7 mph N/A   Mostly Cloudy
1:15 PM 53.6 °F - 41.0 °F 62% 30.13 in 10.0 mi North 17.3 mph 24.2 mph N/A   Mostly Cloudy
1:35 PM 53.6 °F - 41.0 °F 62% 30.12 in 10.0 mi North 19.6 mph 23.0 mph N/A   Mostly Cloudy
1:55 PM 53.6 °F - 41.0 °F 62% 30.11 in 10.0 mi North 19.6 mph 26.5 mph N/A   Mostly Cloudy
2:15 PM 53.6 °F - 39.2 °F 58% 30.11 in 10.0 mi North 20.7 mph 25.3 mph N/A   Mostly Cloudy
2:35 PM 53.6 °F - 41.0 °F 62% 30.11 in 10.0 mi North 17.3 mph - N/A   Unknown
2:55 PM 55.4 °F - 41.0 °F 58% 30.11 in 10.0 mi North 16.1 mph 26.5 mph N/A   Scattered Clouds
3:15 PM 53.6 °F - 41.0 °F 62% 30.11 in 10.0 mi North 16.1 mph 21.9 mph N/A   Mostly Cloudy
3:35 PM 55.4 °F - 41.0 °F 58% 30.11 in 10.0 mi North 17.3 mph 24.2 mph N/A   Scattered Clouds
3:55 PM 55.4 °F - 41.0 °F 58% 30.11 in 10.0 mi NNE 18.4 mph 23.0 mph N/A   Scattered Clouds
4:15 PM 55.4 °F - 37.4 °F 51% 30.11 in 10.0 mi North 16.1 mph 20.7 mph N/A   Scattered Clouds
4:35 PM 53.6 °F - 37.4 °F 54% 30.12 in 10.0 mi North 17.3 mph 21.9 mph N/A   Scattered Clouds
4:55 PM 55.4 °F - 35.6 °F 47% 30.13 in 10.0 mi North 15.0 mph 26.5 mph N/A   Clear
5:15 PM 53.6 °F - 37.4 °F 54% 30.13 in 10.0 mi North 11.5 mph - N/A   Clear
5:35 PM 53.6 °F - 35.6 °F 51% 30.13 in 10.0 mi North 15.0 mph - N/A   Clear
6:15 PM 50.0 °F - 39.2 °F 66% 30.14 in 10.0 mi North 8.1 mph - N/A   Clear
6:35 PM 48.2 °F - 37.4 °F 66% 30.16 in 10.0 mi North 6.9 mph - N/A   Clear
6:55 PM 46.4 °F 42.4 °F 37.4 °F 71% 30.17 in 10.0 mi North 8.1 mph - N/A   Clear
7:15 PM 46.4 °F 43.5 °F 37.4 °F 71% 30.17 in 10.0 mi NW 5.8 mph - N/A   Clear
7:35 PM 44.6 °F 41.4 °F 37.4 °F 76% 30.18 in 10.0 mi NNW 5.8 mph - N/A   Clear
7:55 PM 42.8 °F 41.1 °F 37.4 °F 81% 30.18 in 10.0 mi NNW 3.5 mph - N/A   Clear
8:15 PM 44.6 °F 42.2 °F 37.4 °F 76% 30.19 in 10.0 mi NW 4.6 mph - N/A   Clear
8:35 PM 44.6 °F 41.4 °F 37.4 °F 76% 30.19 in 10.0 mi NW 5.8 mph - N/A   Clear
8:55 PM 44.6 °F 41.4 °F 37.4 °F 76% 30.19 in 10.0 mi NW 5.8 mph - N/A   Clear
9:15 PM 44.6 °F 41.4 °F 37.4 °F 76% 30.19 in 10.0 mi NW 5.8 mph - N/A   Clear
9:35 PM 44.6 °F - 37.4 °F 76% 30.19 in 10.0 mi Calm Calm - N/A   Clear
9:55 PM 42.8 °F - 37.4 °F 81% 30.20 in 10.0 mi Calm Calm - N/A   Clear
10:15 PM 42.8 °F - 37.4 °F 81% 30.20 in 10.0 mi Calm Calm - N/A   Clear
10:35 PM 42.8 °F - 37.4 °F 81% 30.21 in 10.0 mi Calm Calm - N/A   Clear
10:55 PM 41.0 °F - 35.6 °F 81% 30.21 in 10.0 mi Calm Calm - N/A   Clear
11:15 PM 39.2 °F - 35.6 °F 87% 30.21 in 10.0 mi Calm Calm - N/A   Clear
11:35 PM 42.8 °F 41.1 °F 37.4 °F 81% 30.21 in 10.0 mi WNW 3.5 mph - N/A   Clear
11:55 PM 41.0 °F - 37.4 °F 87% 30.21 in 10.0 mi Calm Calm - N/A   Clear